Location: The Saddle
(36.8333°N, 80.3417°W)
Time: 14:41:28
(UTC-05:00)

X-37B - Pass Details

Date: 06 December 2023
Orbit: 277 x 277 km, 45.0° (Epoch: 01 November)

Event Time Altitude Azimuth Distance (km) Brightness Sun altitude
Rises 18:04:51 0° 304° (WNW) 1,915 4.7 -11.8°
Reaches altitude 10° 18:07:25 10° 334° (NNW) 1,101 3.0 -12.3°
Maximum altitude 18:08:44 13° 7° (N) 947 2.3 -12.6°
Enters shadow 18:08:53 13° 11° (N) 950 2.3 -12.6°
